VOCBVOCI

Guest
Details From VOCB - COIMBATORE
To VOCI - COCHIN INTL
Flight Number -
Tags generated
Created
Modified
Stats Distance 66 nm / 122 km
Max Altitude 100 ft / 30 m
Waypoints 3
Social Downloads 0
Likes 0
Share VATSIM

Download

Looking for another format? Having issues loading an existing format? Contact us
Advertisement - Login to hide

Notes

Basic altitude profile: - Ascent Rate: 2500ft/min - Ascent Speed: 250kts - Cruise Altitude: 35000ft - Cruise Speed: 420kts - Descent Rate: 1500ft/min - Descent Speed: 250kts Options: - Use NATs: yes - Use PACOTS: yes - Use low airways: yes - Use high airways: yes

Route

VOCB CCB VOCI

ID Type Via Altitude Latitude Longitude Leg Dist Tot Dist Heading (true) Name
O VOCB APT - 0 ft / 0 m 11.03003˚ 77.04338˚ - 0 nm - COIMBATORE
CCB VOR - 100 ft / 30 m 11.03378˚ 77.04806˚ 0 nm 0 nm 51° / 51° COIMBATORE VOR-DME
O VOCI APT - 0 ft / 0 m 10.15200˚ 76.40191˚ 65 nm 65 nm 216° / 216° COCHIN INTL

Altitude Profile

Advertisement - Login to hide

VOCB

Details ICAO VOCB (CJB)
Name COIMBATORE
Region India
Timezone Asia/Kolkata (UTC+5.5)
Stats Elevation 1,324 ft / 404 m (AMSL)
Location 11.030031° 77.043381°
Runways 1
Magnetic Variation 1.480° W

METAR

VOCB 230600Z 18006KT 6000 FEW015 32/23 Q1010 NOSIG

Decode

TAF

TAF VOCB 230500Z 2306/2412 20010KT 6000 FEW015 SCT080 TEMPO 2312/2318 SCT015 FEW020TCU/CB BKN080 BECMG 2318/2319 00000KT 3000 BR BECMG 2405/2406 20010KT 6000

Decode

Departure Runways

ID Width Length Bearing (true) Bearing (mag) Surface Threshold Offset Overrun Length
05 150 ft / 46 m 8,499 ft / 2,590 m 45.67° 47.15° Asphalt 0 ft / 0 m 185 ft / 56 m
23 150 ft / 46 m 8,499 ft / 2,590 m 225.68° 227.16° Asphalt 0 ft / 0 m 185 ft / 56 m

VOCI

Details ICAO VOCI (COK)
Name COCHIN INTL
Region India
Timezone Asia/Kolkata (UTC+5.5)
Stats Elevation 30 ft / 9 m (AMSL)
Location 10.151996° 76.401905°
Runways 1
Magnetic Variation 1.623° W

METAR

VOCI 230600Z 29006KT 5000 HZ SCT015 SCT090 32/25 Q1007 NOSIG

Decode

TAF

TAF TAF VOCI 230500Z 2306/2412 00000KT 5000 HZ SCT015 SCT090 TEMPO 2309/2313 3000 TSRA/RA SCT010 FEW025CB BKN080 BECMG 2315/2316 09005KT 4000 DZ/HZ TEMPO 2322/2402 2500 TSRA/RA SCT010 FEW025B BKN080 BECMG 2405/2406 08003KT 5000 HZ TEMPO 2409/2412 SCT015 FEW025CB SCT080

Decode

Destination Runways

ID Width Length Bearing (true) Bearing (mag) Surface Threshold Offset Overrun Length
09 148 ft / 45 m 11,139 ft / 3,395 m 87.86° 89.48° Asphalt 0 ft / 0 m 195 ft / 59 m
27 148 ft / 45 m 11,139 ft / 3,395 m 267.87° 269.49° Asphalt 0 ft / 0 m 195 ft / 59 m

Approach Navaids

Runway Type Ident Frequency Range Bearing (true) Bearing (mag) Slope Elevation
27 Localiser ICIL 110.30 MHz 18 nm / 33 km 266.21° 267.83° - 30 ft / 9 m (AMSL)
27 Glidescope ICIL 110.30 MHz 10 nm / 19 km 267.87° 269.49° 3.00° 28 ft / 9 m (AMSL)
27 DME ICIL 110.30 MHz 18 nm / 33 km - - - 40 ft / 12 m (AMSL)

Popular Alternatives